Location: Unspecified
(34.1750°S, 150.8048°E)
Time: 23:33:40
(UTC+10:00)

BlueWalker 3 - Visible Passes

Search period start: 23 April 2024 00:00
Search period end: 03 May 2024 00:00
Orbit: 485 x 495 km, 53.2° (Epoch: 22 April)

Date Brightness Start Highest point End Pass type
(mag) Time Alt. Az. Time Alt. Az. Time Alt. Az.
23 Apr 2.0 05:37:03 10° NW 05:40:50 78° NE 05:44:41 10° SE visible
24 Apr 2.1 05:12:49 13° NW 05:16:08 73° NE 05:19:58 10° SE visible
25 Apr 2.1 04:50:17 42° NNW 04:51:23 68° NE 04:55:12 10° SE visible
26 Apr 2.8 04:27:27 48° ESE 04:27:27 48° ESE 04:30:25 10° SE visible
26 Apr 3.7 06:02:37 10° WSW 06:05:09 17° SSW 06:07:42 10° S visible
27 Apr 4.4 04:04:23 19° ESE 04:04:23 19° ESE 04:05:37 10° SE visible
27 Apr 3.7 05:38:50 14° WSW 05:40:19 17° SSW 05:42:58 10° S visible
28 Apr 3.6 05:15:33 18° SSW 05:15:33 18° SSW 05:18:12 10° SSE visible
29 Apr 4.1 04:52:06 16° S 04:52:06 16° S 04:53:24 10° SSE visible
30 Apr 4.7 04:28:32 10° SSE 04:28:32 10° SSE 04:28:35 10° SSE visible
